sat.trackr.live / text

‹ back to catalog

ODIN

NORAD 26702 · 2001-007A

PAYLOAD ACTIVE UNKNOWN

§ Identity

Operator
Country
SWED
Launch date
2001-02-20
Launch site
SVOBO
Launch vehicle
Mass (kg)
RCS (m²)
1.16

Purposes: science

External: N2YO · Heavens-Above · Gunter

§ Orbital elements

Epoch: 2026-05-25T01:14:27.299904Z

Period
91.81 min
Inclination
97.3902°
Eccentricity
0.0004661
Mean motion
15.68405857 rev/d
Perigee alt
360.3 km
Apogee alt
366.6 km
Semi-major
6,741.6 km
B*
1.0307e-3
RAAN
184.6319°
Arg perigee
172.6884°
Mean anomaly
187.4446°
Rev number
38,576

§ Raw data

ODIN1 26702U 01007A   26145.05170486  .00117209  00000+0  10307-2 0  99962 26702  97.3902 184.6319 0004661 172.6884 187.4446 15.68405857385766

JSON: /api/v1/satellites/26702 · /tle

For live sub-satellite position, see the globe view (requires WebGL).

§ Visibility from observer

Set your observer location to see the next 7 days of passes ≥ 10°. The values pass through the URL so the page stays shareable.

No JS? Fill the form by hand. The geolocation button needs JavaScript.

§ Radio — SatNOGS DB

ModeDescriptionDownlinkUplink
QPSK QPSK 2.208 GHz
BPSK S-band telemetry 2.265 GHz

2 transmitters · refreshed weekly from db.satnogs.org